Weather History for LEMD - April, 2013

Change the Weather History Date:

Wednesday, April 3, 2013

  Actual Average Record
Temperature  
Mean Temperature 48 °F -  
Max Temperature 58 °F 64 °F 78 °F (2008)
Min Temperature 37 °F 43 °F 33 °F (2007)
Degree Days  
Heating Degree Days 18    
Moisture  
Dew Point 42 °F    
Average Humidity 84    
Maximum Humidity 100    
Minimum Humidity 43    
Precipitation  
Precipitation 0.24 in 0.06 in - ()
Sea Level Pressure  
Sea Level Pressure 29.67 in    
Wind  
Wind Speed 4 mph ()    
Max Wind Speed 21 mph    
Max Gust Speed 33 mph    
Visibility 6.6 miles    
Events Rain    
Averages and records for this station are not official NWS values.
T = Trace of Precipitation, MM = Missing Value Source: Averaged Metar Reports

Daily Weather History Graph

Daily Weather History Graph

Search for Another Location

Airport or City:

Trip Planner

Search our weather history database for the weather conditions in past years. The results will help you decide how hot, cold, wet, or windy it might be!

Date:

Astronomy

Apr. 03, 2013 Rise Set
Actual Time 7:54 AM CEST 8:40 PM CEST
Civil Twilight 7:27 AM CEST 9:08 PM CEST
Nautical Twilight 6:54 AM CEST 9:41 PM CEST
Astronomical Twilight 6:20 AM CEST 10:15 PM CEST
Moon 3:24 AM CEST (4/3) 1:36 PM CEST (4/3)
Length of Visible Light 13h 41m
Length of Day
12h 46m
Waning Gibbous, 47% of the Moon is Illuminated
Apr 3
Waning Gibbous
Apr 10
New
Apr 18
First Quarter
Apr 25
Full
May 2
Last Quarter

Hourly Weather History & Observations

Time (CEST) Temp. Windchill Dew Point Humidity Pressure Visibility Wind Dir Wind Speed Gust Speed Precip Events Conditions
12:00 AM 46.4 °F 44.3 °F 39.2 °F 76% 29.83 in 6.2 mi SSE 4.6 mph - N/A   Partly Cloudy
12:30 AM 44.6 °F 41.4 °F 39.2 °F 81% 29.83 in 6.2 mi SSE 5.8 mph - N/A   Partly Cloudy
1:00 AM 44.6 °F 43.1 °F 39.2 °F 81% 29.83 in - South 3.5 mph - N/A   Clear
1:30 AM 44.6 °F - 39.2 °F 81% 29.83 in - Variable 1.2 mph - N/A   Clear
2:00 AM 42 °F - 37 °F 78% 29.86 in 16 mi Calm Calm - -   Clear
2:00 AM 44.6 °F - 39.2 °F 81% 29.80 in - Calm Calm - N/A   Clear
2:30 AM 42.8 °F - 41.0 °F 93% 29.80 in - Variable 1.2 mph - N/A   Clear
3:00 AM 41.0 °F 38.0 °F 39.2 °F 93% 29.80 in - NNE 4.6 mph - N/A   Clear
3:30 AM 39.2 °F 35.9 °F 39.2 °F 100% 29.80 in - North 4.6 mph - N/A   Clear
4:00 AM 39.2 °F 35.9 °F 37.4 °F 93% 29.80 in - NNW 4.6 mph - N/A   Clear
4:30 AM 39.2 °F 37.0 °F 37.4 °F 93% 29.77 in - North 3.5 mph - N/A   Clear
5:00 AM 39.2 °F - 37.4 °F 93% 29.77 in - North 2.3 mph - N/A   Clear
5:30 AM 39.2 °F - 37.4 °F 93% 29.77 in - North 1.2 mph - N/A   Clear
6:00 AM 37.4 °F 34.9 °F 37.4 °F 100% 29.74 in - North 3.5 mph - N/A   Clear
6:30 AM 37.4 °F - 37.4 °F 100% 29.74 in - North 2.3 mph - N/A   Clear
7:00 AM 37.4 °F 34.9 °F 37.4 °F 100% 29.74 in - NNW 3.5 mph - N/A   Clear
7:30 AM 37.4 °F 34.9 °F 37.4 °F 100% 29.74 in - North 3.5 mph - N/A   Clear
8:00 AM 37 °F - 35 °F 88% 29.79 in 19 mi North 4.6 mph - -   Clear
8:00 AM 37.4 °F 34.9 °F 37.4 °F 100% 29.71 in - North 3.5 mph - N/A   Clear
8:30 AM 37.4 °F 34.9 °F 37.4 °F 100% 29.71 in - North 3.5 mph - N/A   Clear
9:00 AM 39.2 °F 37.0 °F 37.4 °F 93% 29.71 in - North 3.5 mph - N/A   Clear
9:30 AM 41.0 °F 37.1 °F 39.2 °F 93% 29.71 in - NNW 5.8 mph - N/A   Clear
10:00 AM 42.8 °F 39.3 °F 41.0 °F 93% 29.71 in - NNW 5.8 mph - N/A   Clear
10:30 AM 46.4 °F 44.3 °F 42.8 °F 87% 29.71 in - North 4.6 mph - N/A   Clear
11:00 AM 50.0 °F - 41.0 °F 71% 29.71 in - North 2.3 mph - N/A   Clear
11:30 AM 50.0 °F - 39.2 °F 66% 29.68 in 6.2 mi South 3.5 mph - N/A   Partly Cloudy
12:00 PM 51.8 °F - 41.0 °F 67% 29.68 in 6.2 mi SSE 3.5 mph - N/A   Partly Cloudy
12:30 PM 51.8 °F - 41.0 °F 67% 29.65 in 6.2 mi ENE 2.3 mph - N/A   Partly Cloudy
1:00 PM 53.6 °F - 41.0 °F 62% 29.65 in 6.2 mi SSE 2.3 mph - N/A   Partly Cloudy
1:30 PM 55.4 °F - 42.8 °F 63% 29.62 in 6.2 mi SSE 6.9 mph - N/A   Partly Cloudy
2:00 PM 57 °F - 41 °F 43% 29.59 in 19 mi SE 6.9 mph - -   Scattered Clouds
2:00 PM 55.4 °F - 41.0 °F 58% 29.62 in 6.2 mi SE 8.1 mph - N/A   Scattered Clouds
2:30 PM 59.0 °F - 41.0 °F 51% 29.59 in 6.2 mi South 2.3 mph - N/A   Scattered Clouds
3:00 PM 59.0 °F - 39.2 °F 48% 29.59 in 6.2 mi SSW 8.1 mph - N/A   Scattered Clouds
3:30 PM 59.0 °F - 41.0 °F 51% 29.56 in 6.2 mi SSW 11.5 mph - N/A   Scattered Clouds
4:00 PM 55.4 °F - 42.8 °F 63% 29.56 in 6.2 mi South 11.5 mph - N/A   Scattered Clouds
4:30 PM 57.2 °F - 42.8 °F 59% 29.56 in 6.2 mi South 2.3 mph - N/A   Scattered Clouds
4:52 PM 55.4 °F - 44.6 °F 67% 29.56 in 5.6 mi South 5.8 mph - N/A Rain Rain
5:00 PM 55.4 °F - 44.6 °F 67% 29.56 in 5.0 mi SSW 8.1 mph - N/A Rain Rain
5:14 PM 50.0 °F - 46.4 °F 87% 29.56 in 3.7 mi SW 20.7 mph 32.2 mph N/A Rain Rain
5:30 PM 50.0 °F - 46.4 °F 87% 29.56 in 6.2 mi WSW 15.0 mph 26.5 mph N/A   Light Drizzle
5:51 PM 50.0 °F - 48.2 °F 94% 29.56 in 3.1 mi WSW 10.4 mph 33.4 mph N/A   Drizzle
6:00 PM 50.0 °F - 48.2 °F 94% 29.56 in 5.0 mi WSW 8.1 mph 19.6 mph N/A   Drizzle
6:30 PM 50.0 °F - 48.2 °F 94% 29.56 in 5.0 mi South 1.2 mph - N/A Rain Light Rain
6:53 PM 48.2 °F - 48.2 °F 100% 29.56 in 5.0 mi NNW 4.6 mph - N/A Rain Rain
7:00 PM 48.2 °F - 48.2 °F 100% 29.56 in 5.0 mi NNW 5.8 mph - N/A Rain Light Rain
7:08 PM 48.2 °F - 46.4 °F 93% 29.56 in 2.5 mi NNW 5.8 mph - N/A Rain Rain
7:30 PM 48.2 °F - 46.4 °F 93% 29.56 in 2.5 mi Variable 2.3 mph - N/A Rain Rain
8:00 PM 48 °F - 45 °F 86% 29.59 in 6 mi East 3.5 mph - - Rain Light Rain
8:00 PM 48.2 °F - 46.4 °F 93% 29.56 in 5.6 mi Variable 2.3 mph - N/A Rain Light Rain
8:30 PM 48.2 °F - 48.2 °F 100% 29.56 in 6.2 mi SSE 4.6 mph - N/A   Mostly Cloudy
9:00 PM 46.4 °F 42.9 °F 46.4 °F 100% 29.56 in 6.2 mi SSE 6.9 mph - N/A   Mostly Cloudy
9:30 PM 46.4 °F 42.9 °F 44.6 °F 93% 29.56 in 6.2 mi SE 6.9 mph - N/A   Mostly Cloudy
10:00 PM 46.4 °F 42.9 °F 44.6 °F 93% 29.59 in 6.2 mi South 6.9 mph - N/A   Scattered Clouds
10:30 PM 46.4 °F 43.5 °F 44.6 °F 93% 29.59 in 6.2 mi South 5.8 mph - N/A   Scattered Clouds
11:00 PM 46.4 °F 43.5 °F 46.4 °F 100% 29.59 in 6.2 mi South 5.8 mph - N/A   Scattered Clouds
11:30 PM 46.4 °F 42.9 °F 46.4 °F 100% 29.59 in 6.2 mi SSW 6.9 mph - N/A   Scattered Clouds